Location: Israel
(31.9174°N, 34.8736°E)
Time: 23:16:14
(UTC+02:00)

ISS - Visible Passes

Search period start: 29 February 2024 00:00
Search period end: 10 March 2024 00:00
Orbit: 414 x 422 km, 51.6° (Epoch: 29 February)

Date Brightness Start Highest point End Pass type
(mag) Time Alt. Az. Time Alt. Az. Time Alt. Az.
05 Mar -0.9 04:52:20 10° N 04:54:18 15° NNE 04:56:16 10° ENE visible
07 Mar -2.4 04:52:07 11° NNW 04:55:09 38° NE 04:58:20 10° ESE visible
08 Mar -1.6 04:06:29 21° NNE 04:06:57 22° NE 04:09:39 10° E visible
09 Mar -3.7 04:53:58 26° WNW 04:55:38 55° SW 04:58:55 10° SSE visible
